Regional Weather Roundup
Issued by NWS

Home | Current Version | Previous Version | Text Only | Print | Product List | Glossary Off
Versions: 1 2 3 4 5 6 7 8 9 10 11 12 13 14 15 16 17 18 19 20 21 22 23 24 25 26 27 28 29 30 31 32 33 34 35 36 37 38 39 40 41 42 43 44 45 46 47 48 49 50

000
ASUS44 KMEG 112110
RWRTN
TENNESSEE HOURLY STATE WEATHER ROUNDUP
NATIONAL WEATHER SERVICE MEMPHIS TN
400 PM CDT FRI JUL 11 2014

TNZ002-004-019-021-049-052-054-088>092-112200-
WEST TENNESSEE

CITY           SKY/WX    TMP DP  RH WIND       PRES   REMARKS
MEMPHIS INTL   PTSUNNY   87  72  60 SW7       30.13F HX  93
NWS MEMPHIS      N/A     83 N/A N/A MISG        N/A
JACKSON        SUNNY     89  64  43 CALM      30.14F HX  90
DYERSBURG      SUNNY     88  61  40 CALM      30.14S
UNION CITY     SUNNY     88  64  45 VRB3      30.13F
PARIS          SUNNY     86  65  49 CALM      30.15F
LEXINGTON      MOSUNNY   88  64  45 CALM      30.14F
$$

TNZ008-025-027-028-033-062-065-066-112200-
NORTH MIDDLE TENNESSEE

CITY           SKY/WX    TMP DP  RH WIND       PRES   REMARKS
NASHVILLE      PTSUNNY   90  58  33 CALM      30.13F
DICKSON        SUNNY     88  63  42 CALM      30.16F
PORTLAND       MOSUNNY   88  61  40 NE5       30.14F
CLARKSVILLE    PTSUNNY   87  63  44 SE3       30.13F
LEBANON        SUNNY     90  58  33 NW5       30.12F
SMYRNA         MOSUNNY   98  61  29 NE6       30.13F HX  98
MURFREESBORO   MOSUNNY   90  58  33 NE6       30.13F
COOKEVILLE     SUNNY     90  59  35 CALM      30.16F
LIVINGSTON     MOSUNNY   86  55  34 E8        30.18
GALLATIN       PTSUNNY   90  63  40 NE5       30.15F HX  91
CROSSVILLE     SUNNY     85  54  34 CALM      30.21F
$$

TNZ061-075-076-078-094-096-097-112200-
SOUTH MIDDLE TENNESSEE

CITY           SKY/WX    TMP DP  RH WIND       PRES   REMARKS
LEWISBURG      MOSUNNY   92  58  31 N3        30.13F HX  91
TULLAHOMA      SUNNY     88  55  33 CALM      30.16F
WINCHESTER     SUNNY     88  61  40 VRB6      30.15S
MCMINNVILLE    MOSUNNY   90  64  43 NE3       30.15F HX  91
COLUMBIA       SUNNY     91  64  40 CALM      30.13F HX  93
$$

TNZ017-018-042-046-047-112200-
NORTHEAST TENNESSEE

CITY           SKY/WX    TMP DP  RH WIND       PRES   REMARKS
TRI CITIES     MOSUNNY   90  54  29 VRB6      30.18F
ELIZABETHTON   CLEAR     86  55  35 CALM      30.18S
$$

TNZ012-013-036-069-073-074-112200-
CENTRAL EAST TENNESSEE

CITY           SKY/WX    TMP DP  RH WIND       PRES   REMARKS
KNOXVILLE      PTSUNNY   89  56  32 NW7       30.13F
OAK RIDGE      MOSUNNY   89  61  38 VRB5      30.16F
$$

TNZ083-085-099-112200-
SOUTHEAST TENNESSEE

CITY           SKY/WX    TMP DP  RH WIND       PRES   REMARKS
CHATTANOOGA    MOSUNNY   91  58  32 N8        30.12F HX  90
$$

SKY/WX REPORTED AS FAIR MEANS FEW OR NO CLOUDS BELOW
12 THOUSAND FEET.




USA.gov is the U.S. government's official web portal to all federal, state and local government web resources and services.